Location: ??????
(55.6361°N, 38.0803°E)
Time: 01:14:52
(UTC+00:00)

STARLINK-60 - Pass Details

Date: 30 March 2020
Orbit: 389 x 399 km, 53.0° (Epoch: 27 May)

Event Time Altitude Azimuth Distance (km) Brightness Sun altitude
Exits shadow 23:56:14 13° 110° (ESE) 1,304 5.7 -23.6°
Drops below altitude 10° 23:56:37 10° 108° (ESE) 1,453 6.0 -23.5°
Enters shadow 00:58:12 -57° 291° (WNW) 11,229 10.2 -17.1°
